�������l�o���
Date,Time,MP-1(��Sv/h),MP-2(��Sv/h),MP-3(��Sv/h),MP-4(��Sv/h),MP-5(��Sv/h),MP-6(��Sv/h),MP-7(��Sv/h),MP-8(��Sv/h),����,����(m/s),���J
2017/12/16,00:00,0.899,1.488,0.935,1.759,1.193,0.496,0.878,0.844,��,2.2,��
2017/12/16,00:10,0.899,1.489,0.933,1.760,1.193,0.493,0.878,0.843,��,2.0,��
2017/12/16,00:20,0.900,1.491,0.935,1.759,1.192,0.495,0.877,0.843,��,0.9,��
2017/12/16,00:30,0.897,1.488,0.935,1.762,1.191,0.494,0.879,0.844,��,0.9,��
2017/12/16,00:40,0.898,1.485,0.934,1.762,1.194,0.495,0.879,0.844,���k��,0.9,��
2017/12/16,00:50,0.899,1.487,0.935,1.764,1.191,0.494,0.878,0.845,���k��,1.1,��
2017/12/16,01:00,0.899,1.489,0.935,1.761,1.192,0.494,0.878,0.844,���k��,1.1,��
2017/12/16,01:10,0.898,1.487,0.934,1.762,1.193,0.496,0.877,0.843,���k��,0.9,��
2017/12/16,01:20,0.898,1.490,0.934,1.761,1.193,0.495,0.880,0.844,-,CALM,��
2017/12/16,01:30,0.899,1.490,0.934,1.761,1.190,0.493,0.878,0.843,-,CALM,��
2017/12/16,01:40,0.900,1.487,0.934,1.763,1.192,0.496,0.879,0.845,-,CALM,��
2017/12/16,01:50,0.900,1.491,0.935,1.762,1.193,0.495,0.878,0.843,��,0.8,��
2017/12/16,02:00,0.898,1.487,0.933,1.758,1.193,0.495,0.878,0.844,-,CALM,��
2017/12/16,02:10,0.900,1.489,0.937,1.759,1.191,0.494,0.878,0.843,�k�k��,0.9,��
2017/12/16,02:20,0.899,1.486,0.933,1.762,1.190,0.494,0.879,0.843,���k��,0.6,��
2017/12/16,02:30,0.899,1.489,0.933,1.760,1.192,0.494,0.879,0.842,���쐼,1.2,��
2017/12/16,02:40,0.898,1.490,0.935,1.762,1.193,0.494,0.880,0.845,���쐼,2.2,��
2017/12/16,02:50,0.897,1.485,0.933,1.762,1.193,0.495,0.880,0.844,���쐼,3.1,��
2017/12/16,03:00,0.898,1.487,0.933,1.759,1.192,0.494,0.880,0.844,��,2.9,��
2017/12/16,03:10,0.899,1.489,0.934,1.762,1.192,0.495,0.879,0.844,���쐼,3.3,��
2017/12/16,03:20,0.900,1.491,0.935,1.761,1.192,0.495,0.880,0.844,���k��,1.7,��
2017/12/16,03:30,0.899,1.487,0.933,1.762,1.191,0.494,0.880,0.844,���k��,1.4,��
2017/12/16,03:40,0.900,1.486,0.935,1.759,1.194,0.496,0.878,0.844,��,1.5,��
2017/12/16,03:50,0.900,1.489,0.936,1.762,1.193,0.496,0.879,0.844,��쐼,3.5,��
2017/12/16,04:00,0.901,1.488,0.934,1.762,1.194,0.495,0.880,0.845,��쐼,6.4,��
2017/12/16,04:10,0.900,1.488,0.933,1.758,1.190,0.494,0.880,0.846,��쐼,6.2,��
2017/12/16,04:20,0.899,1.491,0.937,1.761,1.193,0.495,0.881,0.846,��쐼,5.7,��
2017/12/16,04:30,0.902,1.488,0.937,1.762,1.192,0.496,0.881,0.844,��,5.4,��
2017/12/16,04:40,0.901,1.487,0.935,1.763,1.191,0.495,0.880,0.844,��쐼,5.2,��
2017/12/16,04:50,0.902,1.490,0.936,1.761,1.191,0.496,0.880,0.844,��쐼,3.2,��
2017/12/16,05:00,0.900,1.487,0.935,1.762,1.192,0.496,0.880,0.844,��쐼,2.8,��
2017/12/16,05:10,0.900,1.490,0.936,1.762,1.192,0.496,0.881,0.845,��쐼,2.3,��
2017/12/16,05:20,0.902,1.490,0.937,1.762,1.194,0.495,0.880,0.844,�쐼,2.3,��
2017/12/16,05:30,0.900,1.486,0.935,1.761,1.192,0.495,0.881,0.844,�쐼,3.3,��
2017/12/16,05:40,0.901,1.486,0.935,1.761,1.191,0.497,0.880,0.843,��쐼,3.2,��
2017/12/16,05:50,0.900,1.484,0.936,1.760,1.192,0.496,0.880,0.844,��쐼,2.9,��
2017/12/16,06:00,0.899,1.486,0.935,1.762,1.192,0.496,0.878,0.844,��쐼,2.0,��
2017/12/16,06:10,0.900,1.489,0.932,1.760,1.192,0.496,0.880,0.845,��,0.9,��
2017/12/16,06:20,0.901,1.486,0.932,1.763,1.191,0.495,0.882,0.843,�쓌,1.4,��
2017/12/16,06:30,0.900,1.489,0.936,1.761,1.193,0.496,0.879,0.846,�쓌,1.4,��
2017/12/16,06:40,0.898,1.489,0.935,1.758,1.193,0.496,0.883,0.845,��쓌,1.9,��
2017/12/16,06:50,0.902,1.488,0.933,1.756,1.193,0.497,0.879,0.845,��,3.8,��
2017/12/16,07:00,0.898,1.483,0.937,1.761,1.192,0.496,0.879,0.843,��쐼,4.1,��
2017/12/16,07:10,0.899,1.489,0.935,1.763,1.191,0.496,0.880,0.844,��,2.9,��
2017/12/16,07:20,0.900,1.487,0.935,1.762,1.194,0.495,0.876,0.846,��,3.9,��
2017/12/16,07:30,0.901,1.487,0.936,1.762,1.194,0.494,0.879,0.846,���쐼,2.0,��
2017/12/16,07:40,0.900,1.487,0.934,1.762,1.192,0.495,0.880,0.845,��,1.5,��
2017/12/16,07:50,0.901,1.489,0.935,1.762,1.192,0.495,0.879,0.845,��,8.0,��
2017/12/16,08:00,0.903,1.487,0.936,1.764,1.194,0.496,0.881,0.845,��,8.8,��
2017/12/16,08:10,0.901,1.489,0.938,1.764,1.192,0.497,0.879,0.847,��,5.9,��
2017/12/16,08:20,0.902,1.491,0.937,1.763,1.194,0.498,0.881,0.847,���쐼,4.9,��
2017/12/16,08:30,0.903,1.489,0.935,1.763,1.194,0.498,0.882,0.846,���쐼,4.6,��
2017/12/16,08:40,0.904,1.488,0.936,1.765,1.192,0.497,0.883,0.847,��,4.8,��
2017/12/16,08:50,0.901,1.487,0.937,1.769,1.196,0.497,0.883,0.846,���쐼,3.2,��
2017/12/16,09:00,0.904,1.488,0.937,1.766,1.196,0.497,0.884,0.844,���쐼,4.8,��
2017/12/16,09:10,0.903,1.489,0.936,1.766,1.194,0.498,0.886,0.847,���쐼,5.5,��
2017/12/16,09:20,0.903,1.491,0.938,1.765,1.194,0.497,0.884,0.847,���쐼,5.1,��
2017/12/16,09:30,0.904,1.488,0.938,1.767,1.193,0.498,0.883,0.847,���쐼,4.9,��
2017/12/16,09:40,0.905,1.489,0.938,1.766,1.198,0.497,0.881,0.846,���쐼,2.3,��
2017/12/16,09:50,0.905,1.486,0.939,1.767,1.194,0.496,0.881,0.846,��,2.5,��
2017/12/16,10:00,0.903,1.488,0.938,1.768,1.194,0.498,0.880,0.848,��,3.8,��
2017/12/16,10:10,0.904,1.488,0.940,1.766,1.194,0.497,0.880,0.847,���k��,3.2,��
2017/12/16,10:20,0.906,1.488,0.938,1.769,1.195,0.498,0.881,0.847,�k��,2.3,��
2017/12/16,10:30,0.906,1.488,0.937,1.766,1.194,0.497,0.882,0.846,�k�k��,3.9,��
2017/12/16,10:40,0.903,1.483,0.937,1.771,1.197,0.497,0.880,0.848,�k�k��,3.7,��
2017/12/16,10:50,0.906,1.485,0.938,1.769,1.199,0.497,0.878,0.845,�k��,3.2,��
2017/12/16,11:00,0.906,1.485,0.938,1.765,1.197,0.498,0.880,0.847,���k��,3.0,��
2017/12/16,11:10,0.906,1.486,0.940,1.768,1.197,0.499,0.882,0.847,���k��,6.7,��
2017/12/16,11:20,0.908,1.485,0.940,1.771,1.199,0.498,0.883,0.846,��,6.9,��
2017/12/16,11:30,0.904,1.490,0.942,1.770,1.200,0.498,0.883,0.849,���k��,8.5,��
2017/12/16,11:40,0.908,1.492,0.941,1.769,1.198,0.498,0.884,0.849,��,10.2,��
2017/12/16,11:50,0.908,1.492,0.941,1.771,1.198,0.500,0.883,0.848,��,7.3,��
2017/12/16,12:00,0.908,1.493,0.942,1.769,1.202,0.498,0.883,0.848,��,7.6,��
2017/12/16,12:10,0.907,1.494,0.942,1.770,1.198,0.500,0.883,0.850,��,7.5,��
2017/12/16,12:20,0.909,1.493,0.942,1.771,1.198,0.500,0.881,0.850,���k��,6.1,��
2017/12/16,12:30,0.908,1.490,0.942,1.772,1.202,0.499,0.885,0.848,��,5.8,��
2017/12/16,12:40,0.907,1.492,0.941,1.770,1.200,0.500,0.883,0.849,��,5.9,��
2017/12/16,12:50,0.906,1.490,0.942,1.773,1.202,0.499,0.884,0.849,��,5.5,��
2017/12/16,13:00,0.906,1.488,0.940,1.770,1.201,0.501,0.884,0.847,��,5.3,��
2017/12/16,13:10,0.906,1.487,0.942,1.770,1.200,0.501,0.887,0.848,��,5.6,��
2017/12/16,13:20,0.906,1.491,0.939,1.773,1.202,0.501,0.885,0.847,���쐼,3.8,��
2017/12/16,13:30,0.905,1.491,0.943,1.770,1.199,0.499,0.885,0.847,��쓌,5.0,��
2017/12/16,13:40,0.907,1.491,0.941,1.770,1.199,0.501,0.886,0.845,��쓌,4.7,��
2017/12/16,13:50,0.908,1.490,0.941,1.773,1.201,0.500,0.884,0.847,��쓌,5.5,��
2017/12/16,14:00,0.908,1.487,0.942,1.771,1.201,0.501,0.885,0.844,��쓌,4.7,��
2017/12/16,14:10,0.905,1.489,0.944,1.772,1.200,0.501,0.887,0.846,��쓌,5.1,��
2017/12/16,14:20,0.907,1.489,0.940,1.773,1.201,0.499,0.886,0.846,��쓌,4.2,��
2017/12/16,14:30,0.907,1.491,0.940,1.771,1.202,0.500,0.885,0.846,��쓌,3.4,��
2017/12/16,14:40,0.906,1.486,0.942,1.772,1.204,0.501,0.884,0.844,��쓌,3.7,��
2017/12/16,14:50,0.908,1.490,0.941,1.772,1.203,0.501,0.885,0.848,��쓌,3.1,��
2017/12/16,15:00,0.906,1.489,0.944,1.771,1.201,0.501,0.886,0.849,��쓌,2.6,��
2017/12/16,15:10,0.908,1.494,0.942,1.769,1.201,0.501,0.885,0.849,��쓌,1.9,��
2017/12/16,15:20,0.906,1.495,0.943,1.771,1.202,0.501,0.884,0.847,��쓌,2.0,��
2017/12/16,15:30,0.906,1.494,0.944,1.774,1.201,0.501,0.883,0.848,��,1.2,��
2017/12/16,15:40,0.907,1.498,0.943,1.771,1.197,0.501,0.886,0.849,�쓌,1.1,��
2017/12/16,15:50,0.906,1.496,0.944,1.769,1.195,0.499,0.885,0.849,���k��,1.5,��
2017/12/16,16:00,0.909,1.494,0.943,1.772,1.199,0.502,0.885,0.849,�k��,4.8,��
2017/12/16,16:10,0.908,1.498,0.940,1.769,1.198,0.499,0.883,0.848,�k��,5.7,��
2017/12/16,16:20,0.905,1.498,0.941,1.772,1.200,0.500,0.884,0.847,�k��,5.4,��
2017/12/16,16:30,0.904,1.496,0.940,1.772,1.202,0.500,0.883,0.848,�k�k��,5.0,��
2017/12/16,16:40,0.904,1.495,0.942,1.770,1.201,0.499,0.884,0.846,�k�k��,5.1,��
2017/12/16,16:50,0.902,1.494,0.941,1.767,1.202,0.499,0.883,0.847,�k�k��,5.2,��
2017/12/16,17:00,0.904,1.497,0.939,1.771,1.200,0.500,0.884,0.846,�k�k��,4.3,��
2017/12/16,17:10,0.905,1.497,0.941,1.771,1.197,0.500,0.884,0.847,�k�k��,4.2,��
2017/12/16,17:20,0.908,1.497,0.942,1.768,1.199,0.499,0.883,0.847,�k�k��,3.8,��
2017/12/16,17:30,0.905,1.497,0.942,1.770,1.198,0.498,0.884,0.847,�k,3.8,��
2017/12/16,17:40,0.903,1.497,0.941,1.767,1.198,0.500,0.885,0.846,�k�k��,4.2,��
2017/12/16,17:50,0.904,1.492,0.940,1.768,1.199,0.498,0.883,0.846,�k�k��,4.6,��
2017/12/16,18:00,0.904,1.494,0.939,1.770,1.199,0.498,0.884,0.846,�k�k��,5.0,��
2017/12/16,18:10,0.905,1.498,0.941,1.769,1.200,0.499,0.884,0.846,�k�k��,5.3,��
2017/12/16,18:20,0.903,1.494,0.939,1.769,1.198,0.499,0.883,0.845,�k�k��,5.2,��
2017/12/16,18:30,0.904,1.494,0.940,1.768,1.199,0.496,0.882,0.845,�k�k��,6.6,��
2017/12/16,18:40,0.906,1.495,0.941,1.767,1.203,0.498,0.882,0.846,�k�k��,6.9,��
2017/12/16,18:50,0.902,1.497,0.941,1.769,1.199,0.497,0.883,0.846,�k�k��,5.9,��
2017/12/16,19:00,0.902,1.494,0.939,1.772,1.199,0.498,0.883,0.847,�k�k��,5.4,��
2017/12/16,19:10,0.903,1.495,0.939,1.768,1.199,0.498,0.882,0.845,�k�k��,5.5,��
2017/12/16,19:20,0.903,1.493,0.939,1.767,1.197,0.498,0.882,0.845,�k�k��,4.7,��
2017/12/16,19:30,0.903,1.495,0.941,1.771,1.197,0.497,0.883,0.846,�k�k��,3.1,��
2017/12/16,19:40,0.900,1.494,0.941,1.768,1.199,0.497,0.884,0.845,�k�k��,4.0,��
2017/12/16,19:50,0.904,1.494,0.938,1.768,1.198,0.497,0.883,0.847,�k�k��,4.5,��
2017/12/16,20:00,0.901,1.492,0.940,1.767,1.197,0.497,0.884,0.845,�k�k��,5.6,��
2017/12/16,20:10,0.905,1.492,0.940,1.767,1.198,0.496,0.883,0.845,�k�k��,5.4,��
2017/12/16,20:20,0.904,1.497,0.938,1.769,1.200,0.498,0.883,0.845,�k�k��,4.8,��
2017/12/16,20:30,0.902,1.496,0.938,1.767,1.199,0.499,0.883,0.847,�k�k��,4.8,��
2017/12/16,20:40,0.904,1.493,0.940,1.769,1.199,0.496,0.884,0.846,�k��,4.6,��
2017/12/16,20:50,0.903,1.495,0.939,1.768,1.201,0.498,0.882,0.845,�k��,5.6,��
2017/12/16,21:00,0.904,1.493,0.940,1.770,1.200,0.499,0.884,0.846,�k��,6.6,��
2017/12/16,21:10,0.904,1.493,0.941,1.771,1.200,0.498,0.882,0.846,�k��,8.1,��
2017/12/16,21:20,0.904,1.493,0.939,1.770,1.200,0.499,0.883,0.846,���k��,7.5,��
2017/12/16,21:30,0.905,1.493,0.941,1.766,1.198,0.498,0.884,0.846,���k��,8.4,��
2017/12/16,21:40,0.905,1.491,0.942,1.767,1.200,0.499,0.882,0.847,���k��,7.4,��
2017/12/16,21:50,0.905,1.495,0.941,1.766,1.198,0.497,0.883,0.846,���k��,5.6,��
2017/12/16,22:00,0.906,1.496,0.941,1.769,1.199,0.498,0.883,0.848,�k��,6.1,��
2017/12/16,22:10,0.905,1.494,0.940,1.771,1.200,0.498,0.885,0.846,���k��,3.7,��
2017/12/16,22:20,0.905,1.494,0.942,1.770,1.199,0.500,0.882,0.846,�k��,3.8,��
2017/12/16,22:30,0.905,1.495,0.940,1.771,1.199,0.499,0.883,0.846,�k��,3.3,��
2017/12/16,22:40,0.905,1.494,0.940,1.768,1.199,0.498,0.885,0.847,�k�k��,3.2,��
2017/12/16,22:50,0.905,1.492,0.940,1.770,1.198,0.497,0.884,0.847,�k��,3.2,��
2017/12/16,23:00,0.905,1.492,0.941,1.769,1.198,0.498,0.884,0.847,�k��,4.3,��
2017/12/16,23:10,0.904,1.494,0.941,1.770,1.198,0.498,0.884,0.846,���k��,6.4,��
2017/12/16,23:20,0.904,1.494,0.942,1.768,1.199,0.498,0.884,0.846,���k��,8.3,��
2017/12/16,23:30,0.905,1.494,0.940,1.768,1.200,0.499,0.884,0.847,���k��,7.4,��
2017/12/16,23:40,0.903,1.495,0.941,1.769,1.199,0.498,0.886,0.849,���k��,9.8,��
2017/12/16,23:50,0.906,1.495,0.940,1.771,1.198,0.498,0.884,0.848,���k��,7.8,��
